Flag for Brunei Weather past 2 weeks in Bandar Seri Begawan, Brunei

Now
81 °F

Partly cloudy.


Feels Like: 87 °F
Forecast: 77 / 87 °F
Wind: 12 mph from North

Location: Brunei Airport

Current Time: Jan 30, 2015 at 2:57:10 AM

Latest Report: Jan 30, 2015 at 2:30 AM


Visibility: N/A

Pressure: 29.83 "Hg

Humidity: 89%

Dew point: 77 °F

Location of Bandar Seri BegawanLocation

Historic Weather in Bandar Seri Begawan — Graph

°F

Bandar Seri Begawan temperature yesterday

Maximum temperature yesterday: 86 °F (at 11:30 AM)
Minimum temperature yesterday: 77 °F (at 5:30 AM)
Average temperature yesterday: 82 °F

Past Weeks' High & Low Weather Summary

 TemperatureHumidityPressure
High88 °F (Jan 16, 2:00 PM)100% (Jan 15, 1:00 AM)30.04 "Hg (Jan 15, 1:00 AM)
Low73 °F (Jan 17, 11:30 PM)66% (Jan 16, 3:00 PM)29.77 "Hg (Jan 16, 2:30 PM)
Average80 °F89%29.88 "Hg
* Reported Jan 15 1:00 AM — Jan 30 1:30 AM, Bandar Seri Begawan, Weather by CustomWeather, © 2014

Note: Actual official high and low records may vary slightly from our data, if they occured in-between our weather recording intervals... More about our weather records

Advertising

Bandar Seri Begawan weather history for previous 24 hours

 ConditionsComfort  
Time TempWeatherWind HumidityBarometerVisibility
1:30 AM
Jan 30
81 °FPartly cloudy.10 mph89%29.86 "HgN/A
1:00 AM82 °FPartly cloudy.10 mph84%29.86 "HgN/A
12:30 AM82 °FSprinkles. Partly cloudy.12 mph84%29.86 "HgN/A
12:00 AM82 °FPartly cloudy.9 mph84%29.86 "HgN/A
11:30 PM
Jan 29
82 °FPartly cloudy.7 mph84%29.86 "HgN/A
11:00 PM82 °FPartly cloudy.8 mph84%29.86 "HgN/A
10:30 PM82 °FPartly cloudy.8 mph84%29.89 "HgN/A
10:00 PM82 °FPartly cloudy.7 mph84%29.89 "HgN/A
9:30 PM82 °FPassing clouds.9 mph84%29.86 "HgN/A
9:00 PM82 °FPassing clouds.10 mph84%29.86 "HgN/A
8:30 PM82 °FPartly cloudy.13 mph84%29.86 "HgN/A
8:00 PM82 °FPartly cloudy.9 mph84%29.83 "HgN/A
7:30 PM82 °FPartly cloudy.10 mph84%29.83 "HgN/A
7:00 PM82 °FPartly cloudy.12 mph84%29.83 "HgN/A
6:30 PM82 °FPassing clouds.12 mph84%29.80 "HgN/A
6:00 PM82 °FBroken clouds.10 mph84%29.80 "HgN/A
5:30 PM84 °FBroken clouds.12 mph79%29.80 "HgN/A
5:00 PM84 °FPartly sunny.9 mph84%29.77 "HgN/A
4:30 PM82 °FPartly sunny.8 mph84%29.77 "HgN/A
4:00 PM84 °FPartly sunny.10 mph79%29.77 "HgN/A
3:30 PM86 °FPartly sunny.12 mph75%29.77 "HgN/A
3:00 PM86 °FPartly sunny.8 mph75%29.77 "HgN/A
2:30 PM86 °FBroken clouds.9 mph75%29.80 "HgN/A
2:00 PM86 °FBroken clouds.10 mph75%29.80 "HgN/A
1:30 PM86 °FBroken clouds.8 mph75%29.83 "HgN/A
1:00 PM86 °FBroken clouds.8 mph75%29.83 "HgN/A
12:30 PM86 °FBroken clouds.9 mph75%29.83 "HgN/A
12:00 PM84 °FBroken clouds.8 mph79%29.83 "HgN/A
11:30 AM86 °FBroken clouds.5 mph75%29.86 "HgN/A
11:00 AM84 °FBroken clouds.8 mph79%29.86 "HgN/A
10:30 AM84 °FBroken clouds.7 mph79%29.86 "HgN/A
10:00 AM82 °FBroken clouds.5 mph89%29.86 "HgN/A
9:30 AM82 °FBroken clouds.2 mph89%29.86 "HgN/A
9:00 AM81 °FBroken clouds.2 mph94%29.86 "HgN/A
8:30 AM81 °FBroken clouds.3 mph94%29.86 "HgN/A
8:00 AM79 °FBroken clouds.2 mph100%29.86 "HgN/A
7:30 AM77 °FPartly sunny.1 mph100%29.86 "HgN/A
7:00 AM77 °FBroken clouds.No wind100%29.83 "HgN/A
6:30 AM77 °FPartly cloudy.3 mph100%29.83 "HgN/A
6:00 AM77 °FPartly cloudy.1 mph100%29.83 "HgN/A
5:30 AM77 °FPartly cloudy.3 mph100%29.83 "HgN/A
5:00 AM79 °FPassing clouds.5 mph94%29.83 "HgN/A
4:30 AM79 °FPassing clouds.1 mph94%29.80 "HgN/A
4:00 AM79 °FPassing clouds.3 mph94%29.80 "HgN/A
3:30 AM79 °FSprinkles. Partly cloudy.5 mph94%29.80 "HgN/A
3:00 AM79 °FSprinkles. Partly cloudy.6 mph94%29.83 "HgN/A
2:30 AM79 °FSprinkles. Partly cloudy.5 mph94%29.83 "HgN/A
2:00 AM79 °FPartly cloudy.2 mph94%29.83 "HgN/A
Weather by CustomWeather, © 2014

See weather overviewHow to use our weather pages